This is the latest recevied weather packets stored in our database for station/object W1LBM. If no packets are shown the sender has not sent any weather packets the latest 10 day(s).
| Time | Temp. | Humidity | Pressure | Rain* | Wind** | Luminosity | Snow |
|---|---|---|---|---|---|---|---|
| 1778111326 | 13.89° C | 99% | 1010.3 hPa | 0 mm | - | 0 W/m² | - |
| 1778111024 | 13.89° C | 99% | 1010.3 hPa | 0 mm | - | 1 W/m² | - |
| 1778110722 | 13.89° C | 99% | 1010.2 hPa | 1.27 mm | - | 1 W/m² | - |
| 1778110417 | 13.89° C | 99% | 1010.2 hPa | 1.27 mm | - | 1 W/m² | - |
| 1778110115 | 13.89° C | 99% | 1010.2 hPa | 1.27 mm | - | 2 W/m² | - |
| 1778109810 | 13.89° C | 99% | 1010.3 hPa | 0 mm | - | 2 W/m² | - |
| 1778109507 | 13.89° C | 99% | 1010.1 hPa | 0 mm | - | 2 W/m² | - |
| 1778109205 | 13.89° C | 99% | 1010.2 hPa | 0 mm | - | 3 W/m² | - |
| 1778108902 | 13.89° C | 99% | 1010.1 hPa | 0 mm | - | 3 W/m² | - |
| 1778108599 | 13.89° C | 99% | 1010.4 hPa | 0 mm | - | 4 W/m² | - |
| 1778108295 | 13.89° C | 99% | 1010.3 hPa | 0 mm | - | 4 W/m² | - |
| 1778107992 | 13.89° C | 99% | 1010.3 hPa | 1.78 mm | - | 5 W/m² | - |
| 1778107689 | 13.89° C | 99% | 1010.3 hPa | 1.78 mm | - | 5 W/m² | - |
| 1778107386 | 13.89° C | 99% | 1010.3 hPa | 0 mm | - | 5 W/m² | - |
| 1778107083 | 13.89° C | 98% | 1010.2 hPa | 0 mm | - | 9 W/m² | - |
| 1778106777 | 13.89° C | 98% | 1010 hPa | 0 mm | - | 19 W/m² | - |
| 1778106475 | 13.89° C | 98% | 1010 hPa | 0 mm | - | 10 W/m² | - |
| 1778106170 | 14.44° C | 98% | 1010.3 hPa | 0 mm | - | 14 W/m² | - |
| 1778105869 | 14.44° C | 98% | 1010.3 hPa | 0 mm | - | 27 W/m² | - |
| 1778105566 | 14.44° C | 98% | 1010.2 hPa | 0 mm | - | 34 W/m² | - |
| 1778105263 | 14.44° C | 98% | 1010.4 hPa | 0 mm | - | 21 W/m² | - |
| 1778104958 | 14.44° C | 98% | 1010.5 hPa | 1.27 mm | - | 26 W/m² | - |
| 1778104655 | 14.44° C | 97% | 1010.7 hPa | 1.27 mm | - | 18 W/m² | - |
| 1778104351 | 14.44° C | 97% | 1010.5 hPa | 0 mm | - | 19 W/m² | - |
| 1778104047 | 15° C | 96% | 1010.7 hPa | 0 mm | - | 28 W/m² | - |
* Rain latest hour (hover to see other rain measurements)
** Current wind speed in m/s (hover to see current wind gust speed)